Location: Eastchurch
(51.4000°N, 0.8667°E)
Time: 08:48:40
(UTC+00:00)

USA 215 - Pass Details

Date: 19 January 2026
Orbit: 1098 x 1109 km, 123.0° (Epoch: 10 January)

Event Time Altitude Azimuth Distance (km) Brightness Sun altitude
Exits shadow 20:09:02 48° 214° (SW) 1,408 3.8 -34.5°
Drops below altitude 10° 20:13:39 10° 230° (SW) 2,955 5.9 -35.2°
Sets 20:16:08 0° 233° (SW) 3,909 6.6 -35.6°
